Location: Passau
(48.5830°N, 13.4830°E)
Time: 20:20:15
(UTC+02:00)

S-56A Canister/Altair - Pass Details

Date: 18 May 2024
Orbit: 637 x 2489 km, 38.9° (Epoch: 15 June)

Event Time Altitude Azimuth Distance (km) Brightness Sun altitude
Rises 11:31:03 0° 258° (WSW) 4,638 11.4 55.8°
Reaches altitude 10° 11:34:51 10° 251° (WSW) 3,337 10.8 56.2°
Maximum altitude 11:41:49 35° 189° (S) 1,531 10.1 56.9°
Drops below altitude 10° 11:46:51 10° 124° (SE) 2,378 10.7 57.3°
Sets 11:49:08 0° 115° (ESE) 3,164 11.1 57.6°
